Regional Weather Roundup
Issued by NWS Sioux Falls, SD

Home | Current Version | Previous Version | Graphics & Text | Print | Product List | Glossary Off
Versions: 1 2 3 4 5 6 7 8 9 10 11 12 13 14 15 16 17 18 19 20 21 22 23 24 25 26 27 28 29 30 31 32 33 34 35 36 37 38 39 40 41 42 43 44 45 46 47 48 49 50

000
ASUS43 KFSD 100802
RWRFSD

WEATHER ROUNDUP FOR SE SOUTH DAKOTA/SW MINNESOTA/NW IOWA
NATIONAL WEATHER SERVICE SIOUX FALLS SD
200 AM CST SAT DEC 10 2016

NOTE: "FAIR" INDICATES FEW OR NO CLOUDS BELOW 12,000 FEET WITH NO
SIGNIFICANT WEATHER AND OR OBSTRUCTIONS TO VISIBILITY.


SDZ038>040-050-052>070-100900-
SOUTHEAST SOUTH DAKOTA

CITY           SKY/WX    TMP DP  RH WIND       PRES   REMARKS
CHAMBERLAIN    CLOUDY     4   0  83 NE3       30.45F
HURON          CLEAR      1  -2  87 NW7       30.51R WCI -12
MADISON        CLOUDY     5   1  85 NE6       30.43F WCI  -6
MITCHELL       CLOUDY     7   2  80 N7        30.50S WCI  -5
SIOUX FALLS    CLOUDY    10   6  84 NE8       30.45F WCI  -2
WINNER         CLOUDY     5   1  83 NE5       30.40F WCI  -4
YANKTON        PTCLDY    10   5  79 NW8       30.46S WCI  -1
$$

MNZ071-072-080-081-089-090-097-098-100900-
SOUTHWEST MINNESOTA

CITY           SKY/WX    TMP DP  RH WIND       PRES   REMARKS
FAIRMONT       FLURRIES   8   4  83 N10       30.51R WCI  -6
JACKSON        CLOUDY     7   3  85 N5        30.48S FOG     WCI  -2
LUVERNE        CLOUDY    10   5  79 NE7       30.47F WCI   0
MARSHALL       CLOUDY     4  -1  80 N9        30.51F WCI -10
MONTEVIDEO     CLEAR      0  -6  78 N3        30.56S
PIPESTONE      CLOUDY     7   1  78 E5        30.43F WCI  -2
REDWOOD FALLS  CLOUDY     4  -3  73 NW7       30.54R WCI  -8
TRACY          CLOUDY     7   2  82 N8        30.49F WCI  -6
WINDOM         CLOUDY     7   1  78 MISG      30.49R
WORTHINGTON    FLURRIES   7   3  84 N7        30.46F WCI  -5
$$

IAZ001>003-012>014-020>022-031-032-NEZ013-014-SDZ071-100900-
NORTHWEST IOWA

CITY           SKY/WX    TMP DP  RH WIND       PRES   REMARKS
CHEROKEE       FLURRIES  17  13  84 CALM      30.47F
DENISON        CLOUDY    19  14  79 CALM      30.44F
ESTHERVILLE    CLOUDY     9   6  88 N8        30.49R WCI  -3
LE MARS        CLOUDY    18  12  79 CALM      30.48S
ORANGE CITY    FLURRIES  16  14  93 CALM      30.45S
SHELDON        FLURRIES  14  12  92 NE8       30.45S WCI   3
SIOUX CITY     FLURRIES  20  11  68 CALM      30.49S
SPENCER        LGT SNOW  14  10  84 N5        30.47S FOG     WCI   6
STORM LAKE     CLOUDY    16  12  86 N5        30.45F WCI   9
$$

ABBREVIATIONS USED IN REMARKS
   TC - TEMPERATURE IN CELSIUS
  WCI - WIND CHILL INDEX
   HX - HEAT INDEX
  VSB - VISIBILITY





USA.gov is the U.S. government's official web portal to all federal, state and local government web resources and services.